| time (UTC) | temp C | wind direction | speed KPH | gust KPH | rain 1hr cm | rain 24hr cm | rain mn cm | humidity % | barometer mb |
| 20260505023045 | 20 | 348 | 4.8 | 14.5 | 0.00 | 0.00 | 0.00 | 90 | 1015.8 |
| 20260505022526 | 20 | 343 | 6.4 | 16.1 | 0.00 | 0.00 | 0.00 | 89 | 1015.6 |
| 20260505022026 | 20 | 360 | 6.4 | 16.1 | 0.00 | 0.00 | 0.00 | 89 | 1015.7 |
| 20260505021537 | 20 | 18 | 8.0 | 17.7 | 0.00 | 0.00 | 0.00 | 89 | 1015.6 |
| 20260505021026 | 20 | 317 | 4.8 | 17.7 | 0.00 | 0.00 | 0.00 | 89 | 1015.7 |
| 20260505020525 | 20 | 349 | 6.4 | 14.5 | 0.00 | 0.00 | 0.00 | 89 | 1015.6 |
| 20260505020035 | 20 | 10 | 6.4 | 14.5 | 0.00 | 0.00 | 0.00 | 89 | 1015.7 |
| 20260505015529 | 20 | 346 | 4.8 | 12.9 | 0.00 | 0.00 | 0.00 | 89 | 1015.6 |
| 20260505015030 | 20 | 345 | 4.8 | 14.5 | 0.00 | 0.00 | 0.00 | 89 | 1015.6 |
| 20260505014544 | 20 | 10 | 4.8 | 17.7 | 0.00 | 0.00 | 0.00 | 89 | 1015.6 |
| 20260505013525 | 20 | 347 | 6.4 | 19.3 | 0.00 | 0.00 | 0.00 | 89 | 1015.5 |
| 20260505013043 | 20 | 2 | 3.2 | 8.0 | 0.00 | 0.00 | 0.00 | 89 | 1015.5 |
| 20260505012529 | -17 | 0.0 | 0.0 | 0.00 | 0.00 | 0.00 | 1015.4 | ||
| 20260505012026 | -17 | 0.0 | 0.0 | 0.00 | 0.00 | 0.00 | 1015.5 | ||
| 20260505011550 | -17 | 0.0 | 0.0 | 0.00 | 0.00 | 0.00 | 1015.6 | ||
| 20260505011026 | -17 | 0.0 | 0.0 | 0.00 | 0.00 | 0.00 | 1015.6 | ||
| 20260505010528 | 20 | 4.8 | 12.9 | 0.00 | 0.00 | 0.00 | 89 | 1015.5 | |
| 20260505010038 | 20 | 360 | 9.7 | 14.5 | 0.00 | 0.00 | 0.00 | 89 | 1015.5 |
| 20260505005532 | 20 | 355 | 6.4 | 14.5 | 0.00 | 0.00 | 0.00 | 89 | 1015.5 |
| 20260505005029 | 20 | 0 | 3.2 | 17.7 | 0.00 | 0.00 | 0.00 | 89 | 1015.6 |
| 20260505004536 | 20 | 348 | 4.8 | 17.7 | 0.00 | 0.00 | 0.00 | 89 | 1015.5 |
| 20260505004027 | 20 | 351 | 4.8 | 16.1 | 0.00 | 0.00 | 0.00 | 89 | 1015.4 |
| 20260505003529 | 20 | 357 | 6.4 | 14.5 | 0.00 | 0.00 | 0.00 | 90 | 1015.4 |
| 20260505003035 | 20 | 360 | 4.8 | 14.5 | 0.00 | 0.00 | 0.00 | 90 | 1015.5 |
| 20260505002527 | 20 | 4 | 6.4 | 11.3 | 0.00 | 0.00 | 0.00 | 90 | 1015.5 |
| 20260505002028 | 20 | 358 | 4.8 | 11.3 | 0.00 | 0.00 | 0.00 | 90 | 1015.5 |
| 20260505001535 | 20 | 2 | 4.8 | 12.9 | 0.00 | 0.00 | 0.00 | 90 | 1015.5 |
| 20260505001028 | 20 | 355 | 4.8 | 14.5 | 0.00 | 0.00 | 0.00 | 90 | 1015.4 |
| 20260505000548 | 20 | 355 | 4.8 | 14.5 | 0.00 | 0.00 | 0.00 | 91 | 1015.6 |
| 20260505000040 | 20 | 16 | 6.4 | 12.9 | 0.00 | 0.00 | 0.00 | 91 | 1015.4 |
| 20260504235528 | 19 | 10 | 4.8 | 11.3 | 0.00 | 0.00 | 0.00 | 91 | 1015.4 |
| 20260504235028 | 19 | 354 | 3.2 | 11.3 | 0.00 | 0.00 | 0.00 | 92 | 1015.5 |
| 20260504234538 | 19 | 341 | 3.2 | 9.7 | 0.00 | 0.00 | 0.00 | 92 | 1015.5 |
| 20260504234028 | 19 | 352 | 3.2 | 9.7 | 0.00 | 0.00 | 0.00 | 92 | 1015.4 |
| 20260504233528 | 19 | 351 | 4.8 | 9.7 | 0.00 | 0.00 | 0.00 | 92 | 1015.4 |
| 20260504233039 | 19 | 23 | 3.2 | 9.7 | 0.00 | 0.00 | 0.00 | 92 | 1015.2 |
| 20260504232528 | 19 | 6 | 3.2 | 9.7 | 0.00 | 0.00 | 0.00 | 92 | 1015.2 |
| 20260504232027 | 19 | 10 | 3.2 | 9.7 | 0.00 | 0.00 | 0.00 | 92 | 1015.3 |
| 20260504231538 | 19 | 4 | 1.6 | 9.7 | 0.00 | 0.00 | 0.00 | 92 | 1015.3 |
| 20260504231029 | 19 | 11 | 3.2 | 9.7 | 0.00 | 0.00 | 0.00 | 93 | 1015.3 |
| 20260504230527 | 19 | 14 | 3.2 | 9.7 | 0.00 | 0.00 | 0.00 | 93 | 1015.2 |
| 20260504230035 | 19 | 19 | 4.8 | 9.7 | 0.00 | 0.00 | 0.00 | 93 | 1015.1 |
| 20260504225527 | 19 | 29 | 3.2 | 8.0 | 0.00 | 0.00 | 0.00 | 93 | 1015.0 |
| 20260504225028 | 19 | 16 | 3.2 | 9.7 | 0.00 | 0.00 | 0.00 | 93 | 1015.1 |
| 20260504224545 | 19 | 19 | 4.8 | 9.7 | 0.00 | 0.00 | 0.00 | 93 | 1015.0 |
| 20260504224028 | 18 | 36 | 4.8 | 11.3 | 0.00 | 0.00 | 0.00 | 94 | 1015.0 |
| 20260504223528 | 18 | 39 | 3.2 | 11.3 | 0.00 | 0.00 | 0.00 | 94 | 1015.0 |
| 20260504223037 | 18 | 26 | 4.8 | 11.3 | 0.00 | 0.00 | 0.00 | 94 | 1014.9 |
| 20260504222527 | 18 | 33 | 4.8 | 11.3 | 0.00 | 0.00 | 0.00 | 94 | 1014.7 |
| 20260504222027 | 18 | 33 | 4.8 | 11.3 | 0.00 | 0.00 | 0.00 | 94 | 1014.8 |
| 20260504221538 | 18 | 29 | 4.8 | 11.3 | 0.00 | 0.00 | 0.00 | 94 | 1014.8 |
| 20260504221029 | 18 | 27 | 6.4 | 11.3 | 0.00 | 0.00 | 0.00 | 94 | 1014.8 |
| 20260504220612 | 18 | 43 | 4.8 | 11.3 | 0.00 | 0.00 | 0.00 | 94 | 1014.9 |
| 20260504220038 | 18 | 39 | 4.8 | 11.3 | 0.00 | 0.00 | 0.00 | 94 | 1014.8 |
| 20260504215528 | 18 | 32 | 4.8 | 14.5 | 0.00 | 0.00 | 0.00 | 94 | 1014.8 |
| 20260504215029 | 18 | 39 | 6.4 | 14.5 | 0.00 | 0.00 | 0.00 | 94 | 1014.9 |
| 20260504214547 | 18 | 36 | 4.8 | 12.9 | 0.00 | 0.00 | 0.00 | 94 | 1014.8 |
| 20260504214027 | 18 | 34 | 6.4 | 12.9 | 0.00 | 0.00 | 0.00 | 94 | 1014.7 |
| 20260504213528 | 18 | 50 | 6.4 | 11.3 | 0.00 | 0.00 | 0.00 | 94 | 1014.7 |
| 20260504213049 | 18 | 50 | 4.8 | 9.7 | 0.00 | 0.00 | 0.00 | 94 | 1014.6 |
| 20260504212528 | 18 | 44 | 4.8 | 11.3 | 0.00 | 0.00 | 0.00 | 94 | 1014.6 |
| 20260504212028 | 18 | 45 | 4.8 | 11.3 | 0.00 | 0.00 | 0.00 | 94 | 1014.7 |
| 20260504211540 | 18 | 35 | 4.8 | 9.7 | 0.00 | 0.00 | 0.00 | 95 | 1014.7 |
| 20260504211028 | 18 | 29 | 4.8 | 11.3 | 0.00 | 0.00 | 0.00 | 95 | 1014.7 |
| 20260504210528 | 18 | 38 | 4.8 | 11.3 | 0.00 | 0.00 | 0.00 | 95 | 1014.6 |
| 20260504210040 | 18 | 44 | 4.8 | 8.0 | 0.00 | 0.00 | 0.00 | 95 | 1014.5 |
| 20260504205528 | 18 | 35 | 3.2 | 8.0 | 0.00 | 0.00 | 0.00 | 95 | 1014.6 |
| 20260504205028 | 18 | 22 | 3.2 | 8.0 | 0.00 | 0.00 | 0.00 | 95 | 1014.6 |
| 20260504204535 | 18 | 16 | 3.2 | 8.0 | 0.00 | 0.00 | 0.00 | 95 | 1014.5 |
| 20260504204028 | 18 | 20 | 3.2 | 11.3 | 0.00 | 0.00 | 0.00 | 95 | 1014.5 |
| 20260504203528 | 18 | 4 | 3.2 | 11.3 | 0.00 | 0.00 | 0.00 | 95 | 1014.4 |
| 20260504203035 | 18 | 30 | 3.2 | 11.3 | 0.00 | 0.00 | 0.00 | 95 | 1014.2 |
| 20260504202528 | 18 | 18 | 3.2 | 14.5 | 0.00 | 0.00 | 0.00 | 95 | 1014.3 |
| 20260504202029 | 18 | 2 | 4.8 | 14.5 | 0.00 | 0.00 | 0.00 | 95 | 1014.3 |
| 20260504201537 | 18 | 15 | 3.2 | 12.9 | 0.00 | 0.00 | 0.00 | 95 | 1014.3 |
| 20260504201028 | 18 | 360 | 4.8 | 12.9 | 0.00 | 0.00 | 0.00 | 94 | 1014.2 |
| 20260504200528 | 18 | 357 | 1.6 | 11.3 | 0.00 | 0.00 | 0.00 | 94 | 1014.2 |
| 20260504200049 | 18 | 9 | 3.2 | 14.5 | 0.00 | 0.00 | 0.00 | 94 | 1014.2 |
| 20260504195527 | 18 | 360 | 4.8 | 14.5 | 0.00 | 0.00 | 0.00 | 93 | 1014.2 |
| 20260504195028 | 18 | 348 | 6.4 | 16.1 | 0.00 | 0.00 | 0.00 | 93 | 1014.4 |
| 20260504194541 | 19 | 354 | 6.4 | 16.1 | 0.00 | 0.00 | 0.00 | 92 | 1014.3 |
| 20260504194203 | 19 | 356 | 4.8 | 16.1 | 0.00 | 0.00 | 0.00 | 91 | 1014.3 |
| 20260504193529 | 19 | 343 | 6.4 | 17.7 | 0.00 | 0.00 | 0.00 | 91 | 1014.4 |
| 20260504193035 | 20 | 337 | 8.0 | 19.3 | 0.00 | 0.00 | 0.00 | 90 | 1014.4 |
| 20260504192528 | 20 | 345 | 8.0 | 19.3 | 0.00 | 0.00 | 0.00 | 89 | 1014.3 |
| 20260504192028 | 20 | 347 | 6.4 | 16.1 | 0.00 | 0.00 | 0.00 | 88 | 1014.3 |
| 20260504191550 | 20 | 341 | 4.8 | 14.5 | 0.00 | 0.00 | 0.00 | 87 | 1014.5 |
| 20260504191028 | 20 | 318 | 4.8 | 16.1 | 0.00 | 0.00 | 0.00 | 86 | 1014.6 |
| 20260504190528 | 20 | 337 | 4.8 | 19.3 | 0.00 | 0.00 | 0.00 | 85 | 1014.5 |
| 20260504190038 | 21 | 351 | 4.8 | 22.5 | 0.00 | 0.00 | 0.00 | 83 | 1014.4 |
| 20260504185528 | 21 | 318 | 8.0 | 22.5 | 0.00 | 0.00 | 0.00 | 81 | 1014.4 |
| 20260504185028 | 21 | 333 | 6.4 | 16.1 | 0.00 | 0.00 | 0.00 | 80 | 1014.3 |
| 20260504184552 | 21 | 325 | 3.2 | 16.1 | 0.00 | 0.00 | 0.00 | 80 | 1014.4 |
| 20260504184028 | 22 | 321 | 1.6 | 8.0 | 0.00 | 0.00 | 0.00 | 79 | 1014.4 |
| 20260504183527 | 22 | 308 | 1.6 | 9.7 | 0.00 | 0.00 | 0.00 | 79 | 1014.5 |
| 20260504183044 | 22 | 293 | 3.2 | 9.7 | 0.00 | 0.00 | 0.00 | 78 | 1014.4 |
| 20260504182527 | 22 | 285 | 1.6 | 9.7 | 0.00 | 0.00 | 0.00 | 78 | 1014.5 |
| 20260504182027 | 22 | 303 | 1.6 | 9.7 | 0.00 | 0.00 | 0.00 | 78 | 1014.3 |
| 20260504181544 | 22 | 0 | 1.6 | 6.4 | 0.00 | 0.00 | 0.00 | 78 | 1014.2 |
| 20260504181028 | 22 | 0 | 1.6 | 6.4 | 0.00 | 0.00 | 0.00 | 77 | 1014.1 |
| 20260504180528 | 22 | 314 | 1.6 | 6.4 | 0.00 | 0.00 | 0.00 | 77 | 1014.1 |
| 20260504180036 | 22 | 0 | 0.0 | 6.4 | 0.00 | 0.00 | 0.00 | 76 | 1014.1 |
| 20260504175527 | 22 | 295 | 1.6 | 6.4 | 0.00 | 0.00 | 0.00 | 75 | 1014.0 |
| 20260504175030 | 22 | 310 | 1.6 | 6.4 | 0.00 | 0.00 | 0.00 | 74 | 1014.0 |
| 20260504174542 | 23 | 297 | 1.6 | 6.4 | 0.00 | 0.00 | 0.00 | 74 | 1014.1 |
| 20260504174028 | 23 | 310 | 1.6 | 9.7 | 0.00 | 0.00 | 0.00 | 73 | 1014.2 |
| 20260504173527 | 23 | 0 | 1.6 | 11.3 | 0.00 | 0.00 | 0.00 | 72 | 1014.3 |
| 20260504173037 | 23 | 349 | 4.8 | 14.5 | 0.00 | 0.00 | 0.00 | 72 | 1014.4 |
| 20260504172530 | 23 | 358 | 6.4 | 16.1 | 0.00 | 0.00 | 0.00 | 70 | 1014.3 |
| 20260504172028 | 24 | 337 | 8.0 | 16.1 | 0.00 | 0.00 | 0.00 | 71 | 1014.4 |
| 20260504171535 | 23 | 1 | 8.0 | 16.1 | 0.00 | 0.00 | 0.00 | 71 | 1014.4 |
| 20260504171028 | 23 | 320 | 6.4 | 14.5 | 0.00 | 0.00 | 0.00 | 74 | 1014.6 |
| 20260504170527 | 23 | 351 | 4.8 | 16.1 | 0.00 | 0.00 | 0.00 | 73 | 1014.7 |
| 20260504151029 | 23 | 356 | 6.4 | 16.1 | 0.00 | 0.00 | 0.00 | 73 | 1016.0 |
| 20260504150528 | 22 | 0 | 4.8 | 16.1 | 0.00 | 0.00 | 0.00 | 73 | 1016.0 |
| 20260504141027 | 20 | 0 | 1.6 | 8.0 | 0.00 | 0.00 | 0.00 | 79 | 1016.6 |
| 20260504140528 | 20 | 325 | 1.6 | 9.7 | 0.00 | 0.00 | 0.00 | 79 | 1016.9 |
| 20260504130528 | 17 | 54 | 4.8 | 11.3 | 0.00 | 0.00 | 0.00 | 83 | 1016.6 |
| 20260504110528 | 12 | 71 | 3.2 | 8.0 | 0.00 | 0.00 | 0.00 | 87 | 1016.0 |
| 20260504100609 | 11 | 70 | 1.6 | 6.4 | 0.00 | 0.00 | 0.00 | 85 | 1015.9 |
| 20260504081541 | 10 | 85 | 1.6 | 9.7 | 0.00 | 0.00 | 0.00 | 87 | 1015.8 |
| 20260504081029 | 10 | 78 | 1.6 | 11.3 | 0.00 | 0.00 | 0.00 | 87 | 1015.9 |
| 20260504080526 | 10 | 87 | 1.6 | 11.3 | 0.00 | 0.00 | 0.00 | 87 | 1015.7 |
| 20260504050528 | 10 | 74 | 3.2 | 9.7 | 0.00 | 0.00 | 0.00 | 91 | 1017.2 |
| 20260504045528 | 10 | 83 | 4.8 | 9.7 | 0.00 | 0.00 | 0.00 | 90 | 1017.2 |
| 20260504045028 | 10 | 85 | 3.2 | 9.7 | 0.00 | 0.00 | 0.00 | 90 | 1017.6 |
| 20260504044550 | 10 | 81 | 3.2 | 9.7 | 0.00 | 0.00 | 0.00 | 90 | 1017.7 |
| 20260504044031 | 10 | 77 | 3.2 | 9.7 | 0.00 | 0.00 | 0.00 | 90 | 1017.6 |
| 20260504043528 | 10 | 91 | 1.6 | 4.8 | 0.00 | 0.00 | 0.00 | 90 | 1017.6 |
| 20260504043039 | 10 | 89 | 0.0 | 4.8 | 0.00 | 0.00 | 0.00 | 90 | 1017.8 |
| 20260504042528 | 10 | 0 | 0.0 | 0.0 | 0.00 | 0.00 | 0.00 | 90 | 1017.8 |
| 20260504042027 | 10 | 0 | 0.0 | 0.0 | 0.00 | 0.00 | 0.00 | 89 | 1017.7 |
| 20260504041539 | 10 | 0 | 0.0 | 0.0 | 0.00 | 0.00 | 0.00 | 89 | 1017.8 |
| 20260504041027 | 10 | 0 | 0.0 | 0.0 | 0.00 | 0.00 | 0.00 | 88 | 1017.8 |
| 20260504040611 | 10 | 0 | 0.0 | 1.6 | 0.00 | 0.00 | 0.00 | 88 | 1017.8 |
| 20260504040059 | 11 | 0 | 0.0 | 4.8 | 0.00 | 0.00 | 0.00 | 88 | 1017.9 |
| 20260504035527 | 11 | 0 | 0.0 | 6.4 | 0.00 | 0.00 | 0.00 | 88 | 1017.9 |
| 20260504035027 | 11 | 61 | 1.6 | 6.4 | 0.00 | 0.00 | 0.00 | 88 | 1017.9 |
| 20260504034553 | 11 | 0 | 1.6 | 6.4 | 0.00 | 0.00 | 0.00 | 87 | 1017.8 |
| 20260504034026 | 11 | 59 | 0.0 | 6.4 | 0.00 | 0.00 | 0.00 | 87 | 1017.9 |
| 20260504033526 | 11 | 63 | 0.0 | 8.0 | 0.00 | 0.00 | 0.00 | 86 | 1018.0 |
| 20260504033110 | 11 | 77 | 3.2 | 8.0 | 0.00 | 0.00 | 0.00 | 86 | 1018.0 |
| 20260504032526 | 11 | 70 | 3.2 | 8.0 | 0.00 | 0.00 | 0.00 | 86 | 1018.1 |
| 20260504032026 | 11 | 51 | 3.2 | 6.4 | 0.00 | 0.00 | 0.00 | 85 | 1018.0 |
| 20260504031544 | 11 | 54 | 1.6 | 8.0 | 0.00 | 0.00 | 0.00 | 86 | 1018.1 |
| 20260504031026 | 11 | 46 | 3.2 | 8.0 | 0.00 | 0.00 | 0.00 | 86 | 1018.2 |
| 20260504030526 | 11 | 44 | 1.6 | 11.3 | 0.00 | 0.00 | 0.00 | 86 | 1018.2 |
| 20260504030045 | 11 | 41 | 3.2 | 11.3 | 0.00 | 0.00 | 0.00 | 86 | 1018.4 |
| 20260504025529 | 11 | 0 | 3.2 | 12.9 | 0.00 | 0.00 | 0.00 | 87 | 1018.3 |
| 20260504025030 | 11 | 62 | 4.8 | 12.9 | 0.00 | 0.00 | 0.00 | 87 | 1018.4 |
| 20260504024539 | 11 | 69 | 6.4 | 14.5 | 0.00 | 0.00 | 0.00 | 88 | 1018.4 |
| 20260504024028 | 11 | 47 | 6.4 | 14.5 | 0.00 | 0.00 | 0.00 | 88 | 1018.3 |
| 20260504023528 | 11 | 57 | 6.4 | 14.5 | 0.00 | 0.00 | 0.00 | 88 | 1018.4 |